Location: Kings Park
(40.8862°N, 73.2573°W)
Time: 04:48:15
(UTC+00:00)

Cosmos 1408 - Pass Details

Date: 29 October 2020
Orbit: 470 x 492 km, 82.6° (Epoch: 27 November)

Event Time Altitude Azimuth Distance (km) Brightness Sun altitude
Rises 22:56:55 0° 360° (N) 2,557 6.2 -12.8°
Reaches altitude 10° 22:59:07 10° 8° (N) 1,676 5.1 -13.2°
Maximum altitude 23:02:34 39° 78° (ENE) 748 3.0 -13.8°
Drops below altitude 10° 23:06:02 10° 149° (SSE) 1,674 5.0 -14.5°
Sets 23:08:13 0° 157° (SSE) 2,553 6.1 -14.9°
